Location: Katherine
(14.4670°S, 132.2670°E)
Time: 14:23:09
(UTC+09:30)

ISS - Pass Details

Date: 21 February 2018
Orbit: 402 x 407 km, 51.6° (Epoch: 23 February)

Event Time Altitude Azimuth Distance (km) Brightness Sun altitude
Rises 19:45:22 0° 297° (WNW) 2,308 0.9 -9.4°
Reaches altitude 10° 19:47:48 10° 279° (W) 1,456 0.2 -10.0°
Maximum altitude 19:50:17 20° 229° (SW) 1,014 -0.9 -10.6°
Drops below altitude 10° 19:52:46 10° 180° (S) 1,468 -0.8 -11.2°
Sets 19:55:15 0° 162° (SSE) 2,334 0.0 -11.8°
